Simultaneous Nadir Overpasses (SNOs) Predictions

Prediction of SNOs between GOES-14 and NOAA-20 Satellite Orbit:

Table of predicted SNOs for the next 14.0 days since TLE Epoch: 9/12/2020
Index Date Time (GOES-14) GOES-14 Lat,Lon NOAA-20 Lat,Lon Distance(km) Time Diff (sec)
1 09/13/2020 08:32:11 0.36,-104.41 0.80,-106.43 230.36 80
2 09/14/2020 08:10:45 0.36,-104.39 -0.21,-101.90 284.65 80
3 09/15/2020 20:32:40 -0.35,-104.48 -0.98,-107.20 310.97 80
4 09/16/2020 20:16:36 -0.35,-104.48 0.08,-102.68 206.17 80
5 09/18/2020 08:38:22 0.33,-104.40 1.11,-107.94 402.96 80
6 09/19/2020 08:16:57 0.35,-104.38 0.10,-103.41 112.31 80
7 09/20/2020 20:38:52 -0.33,-104.44 -1.29,-108.71 486.70 80
8 09/21/2020 20:22:47 -0.34,-104.44 -0.28,-104.17 30.41 80
9 09/24/2020 08:25:47 0.32,-104.37 0.46,-104.90 60.52 80
10 09/25/2020 08:04:22 0.33,-104.36 -0.54,-100.36 454.57 80
